RADIO 5

Satellite information

Favourite Embed

Satellite Type and Status

PAYLOADIN ORBIT

Key statistics

Satellite RADIO 5 at a glance.

Uptime

16029

Days in orbit

Revolutions

≈ 12.1

Per day

Orbit

LEO

Low Earth Orbit

Inclination

83.0

Latest

Satellite identification and parameters

Extended collection of information and parameters for RADIO 5.

Object identification

Identified? True

Debris? False

Object name: RADIO 5

International designator: 1981-120C

Object number (NORAD): 12999

Object ID (CCSDS): 12999

Country: COMMONWEALTH OF INDEPENDENT STATES (CIS)

Current information (Y/N): Y

RCS size: MEDIUM

Orbital parameters

Period: 119.472 minutes

Inclination: 82.9625 deg

SMA: 8035.35 km

Apoapsis: 1669.538 km

Periapsis: 1644.893 km

RAAN: 207.4607 deg

Eccentricy: 0.0015335

Argument of periapsis: 56.8267 deg

Mean anomaly: 330.4125 deg

Mean motion: 12.05301022 rev/day

Mean motion (dot): 0.00000146 rev/day2

B* drag term: 0.0015847 1/REarth

Two-line elements (TLE)

Creation date: Nov. 4, 2025, 11:56 p.m.

Reference frame: TEME

Reference center: EARTH

Epoch: Nov. 4, 2025, 4:28 p.m. UTC

TLE line 0: 0 RADIO 5

TLE line 1: 1 12999U 81120C 25308.68673322 .00000146 00000-0 15847-2 0 9995

TLE line 2: 2 12999 82.9625 207.4607 0015335 56.8267 330.4125 12.05301022930535

Live tracking on map

Real-time ground track for satellite RADIO 5.

In-orbit conjunctions

There are no conjunctions computed for RADIO 5, at the moment. Check back to stay up to date, as we update our databases every day.

Go to all conjunctions

Associated space launch

6 Soviet amateur radio satellites

RADIO 5 was lifted into orbit during the mission ‘Kosmos-3M | Radio Sputnik 3 to 8’, on board a Kosmos-3M space rocket.

The launch took place on Dec. 17, 1981, 11 a.m. from 132/2.

For more information about the launch, click the button.

Launch to space Kosmos-3M | Radio Sputnik 3 to 8
Kosmos-3M | Radio Sputnik 3 to 8

Agency: N/A

Status: Launch Successful

Launch date: Dec. 17, 1981, 11 a.m. UTC

Rocket: Kosmos-3M

Launch pad: 132/2

Location: Plesetsk Cosmodrome, Russian Federation

...

Latest news about this satellite

There are no fresh news available about this satellite. Check back as we update our databases every day.


Newsletter sign-up

Weekly statistics, charts and insights to help you stay on top of the space industry.